Location: *
(43.9905°S, 176.4941°W)
Time: 18:22:41
(UTC+00:00)

Cosmos 1271 Rocket - Pass Details

Date: 08 December 2019
Orbit: 498 x 546 km, 81.2° (Epoch: 18 January)

Event Time Altitude Azimuth Distance (km) Brightness Sun altitude
Rises 09:40:49 0° 182° (S) 2,721 7.5 -18.1°
Reaches altitude 10° 09:43:10 10° 171° (S) 1,829 6.2 -18.3°
Maximum altitude 09:46:49 33° 106° (ESE) 949 3.9 -18.6°
Enters shadow 09:47:38 30° 82° (E) 1,011 3.8 -18.7°
